Find Starlink 2408

NORAD ID: 47823 Int'l Des: 2021-018 Owner: SPXS Country: US Constellation: starlink operational
LEOCIRCULARSTARLINK_TYPE

現在のビュー

3D地球を読み込み中...

About Starlink 2408

Starlink 2408 (NORAD 47823) is a starlink constellation satellite (v1.0) launched Mar 11, 2021 by SPXS of US. It operates in LEO, CIRCULAR, STARLINK_TYPE orbit with a mass of 260.00 kg.

Starlink 2408について

説明を読み込み中...

次回通過

Passes for default location (London). Set your location on the main map for personalized predictions.

高度履歴

Loading altitude history...

軌道要素

1 47823U 21018AN 26171.19562336 .00001312 00000-0 54039-4 0 9990
2 47823 53.1602 141.1828 0001214 77.7449 282.3689 15.31703691292203
Epoch: Jun 20, 2026 • Age: 37 hours

現在のステータス

高度 471.6 km
速度 7.63 km/s
衛星直下点 0.58°N, 141.31°E
打ち上げ日 Mar 11, 2021
運用期間 5.2 years
タイプ internet

技術仕様

分類 Payload
質量 260.00 kg
乾燥質量 248.00 kg
総質量 260.00 kg
長さ 0.20 m
直径 2.80 m
スパン 9.00 m
形状 Box + pan
製造者 SPXS
バスタイプ Starlink
フェーズステータス In Orbit
所有者/国 SPXS/US

Most Searched